Content
SEND FEEDBACK

Daily
Averages
Monthly
Summary
United States of America

WAHWEAP, ARIZONA


Home > North America > United States > Arizona
Elevation: 3703 feet     Latitude: 36 59N     Longitude: 111 29W

WEATHER
 
SELECT A DAY
Number of Records: 198,411;   Date Range: 1/1/95 - 12/18/14
 
SHARE

PRINT THIS DATA

[ ← Previous Day ]
WEATHER ALMANAC - JANUARY 9, 2013
[ Next Day → ]
[ °C ]   °F
Weather ElementAverageHighLow
Temperature34.9 °F46 °F (3:53 pm)26.6 °F (5:42 am)
Dewpoint20.2 °F23 °F (2:53 pm)17.1 °F (1:53 am)
Humidity55.9 %69 % (5:42 am)40 % (3:53 pm)
Barometer30.29 in30.45 in (10:53 am)30.10 in (11:53 pm)
Wind Speed0.9 mph4.6 mph (2:53 pm)
Weather ElementAverage
Visibility8.9 mi
Wind DirectionNNE (15 °)

Weather ElementTotal
Precipitation---
Heating Degree Days28.7 (Base 65)
Averaged from 26 records on January 9, 2013
WEATHER CONDITIONS BREAKOUT
WIND DIRECTION BREAKOUT
WEATHER BY HOUR - JANUARY 9, 2013
[ °C ]   °F
Local TimeTemperatureDewpointHumidityBarometerVisibilityWind DirectionWind SpeedGust SpeedPrecipitationEventsConditions
1:53 AM30.0 °F17.1 °F59 %30.36 in10.0 miCalmClear
2:53 AM28.9 °F17.1 °F61 %30.35 in9.0 miCalmClear
3:53 AM28.0 °F17.1 °F63 %30.35 in8.0 miCalmClear
4:53 AM28.0 °F17.1 °F63 %30.35 in9.0 miCalmClear
5:42 AM26.6 °F17.6 °F69 %30.32 in2.5 miCalmHaze
5:50 AM28.4 °F17.6 °F64 %30.32 in9.0 miCalmClear
5:53 AM28.0 °F17.1 °F63 %30.35 in8.0 miCalmClear
6:53 AM27.0 °F17.1 °F66 %30.38 in10.0 miCalmClear
7:53 AM28.0 °F17.1 °F63 %30.40 in10.0 miCalmClear
8:53 AM33.8 °F19.4 °F56 %30.39 in10.0 miCalmClear
9:53 AM34.0 °F21.0 °F59 %30.44 in10.0 miNorth (10°)3.5 mphClear
10:53 AM37.0 °F19.9 °F50 %30.45 in10.0 miNNE (30°)3.5 mphClear
11:53 AM39.9 °F19.9 °F45 %30.38 in10.0 miCalmClear
12:53 PM43.0 °F21.9 °F43 %30.32 in10.0 miVariable3.5 mphClear
1:53 PM44.1 °F21.9 °F42 %30.29 in10.0 miCalmClear
2:53 PM45.0 °F23.0 °F42 %30.26 in10.0 miENE (60°)4.6 mphClear
3:53 PM46.0 °F23.0 °F40 %30.24 in10.0 miNE (40°)4.6 mphClear
4:53 PM45.0 °F23.0 °F42 %30.22 in10.0 miCalmClear
5:53 PM39.9 °F23.0 °F51 %30.22 in10.0 miCalmClear
6:53 PM37.0 °F23.0 °F57 %30.22 in10.0 miCalmClear
7:53 PM37.0 °F21.9 °F54 %30.19 in10.0 miCalmClear
8:53 PM36.0 °F21.9 °F57 %30.17 in10.0 miCalmClear
9:43 PM35.6 °F21.2 °F56 %30.12 in2.5 miCalmHaze
9:53 PM34.0 °F21.9 °F61 %30.14 in4.0 miCalmHaze
10:53 PM35.1 °F21.9 °F59 %30.11 in10.0 miCalmClear
11:53 PM32.0 °F23.0 °F69 %30.10 in9.0 miWSW (250°)3.5 mphClear
Hourly data recorded from KPGA, located miles away from Wahweap, Arizona







STORIES FROM OUR PARTNERS